Other Surface Observations
Issued by NWS

Current Version | Previous Version | Text Only | Print | Product List | Glossary On
Versions: 1 2 3 4 5 6 7 8 9 10 11 12 13 14 15 16 17 18 19 20 21 22 23 24 25 26 27 28 29 30 31 32 33 34 35 36 37 38 39 40 41 42 43 44 45 46 47 48 49 50
000
SXUS52 KTAE 031719
OSOTAE
OSOTAE
North Florida/South Alabama/Southwest Georgia Weather Roundup
National Weather Service Tallahassee Florida
100 PM EDT THU SEP 03 2015

Note: "fair" indicates few or no clouds below 12,000 feet with no
significant weather and/or obstructions to visibility.

!FLZ017-115-028-034-025-031800
...North Florida...

CITY           SKY/WX    TMP DP  RH WIND       PRES   REMARKS
TALLAHASSEE    PTSUNNY   94  72  48 N5        29.98F HX 102
APALACHICOLA   CLOUDY    87  76  69 W9        29.99F THUNDER HX  97
PERRY          SUNNY     92  74  55 CALM      29.97F HX 101
CROSS CITY       N/A     93  74  53 W8        29.97F HX 103
JACKSONVILLE   PTSUNNY   87  74  64 N9        29.96F HX  95
$$

!FLZ112-006-005-002-011-031800
...Florida Panhandle...

CITY           SKY/WX    TMP DP  RH WIND       PRES   REMARKS
MARIANNA       CLOUDY    88  73  61 CALM      29.98F HX  95
BONIFAY        NOT AVBL
PANAMA CITY NW FAIR      88  73  61 SW7       29.99F HX  95
TYNDALL AFB    PTSUNNY   86  73  65 W10       30.00S HX  94
TYND DRONE APT FAIR      85  74  68 W5        30.00S HX  93
DE FUNIAK SPR  FAIR      84  74  71 CALM      30.01F HX  92
EGLIN AFB      CLOUDY    86  73  66 SW7       30.00F HX  93
DESTIN         CLOUDY    86  74  67 SW5       30.00F HX  94
HURLBURT       CLOUDY    87  73  63 SW8       29.99F HX  94
CRESTVIEW      CLOUDY    86  73  65 CALM      30.02F HX  93
PENSACOLA      CLOUDY    85  71  63 NW5       30.01F HX  90
$$

!ALZ063-066-031800
...South Alabama...

CITY           SKY/WX    TMP DP  RH WIND       PRES   REMARKS
DOTHAN         CLOUDY    87  74  64 N5        30.04F HX  95
OZARK CAIRNS   CLOUDY    88  72  57 N6        30.00S HX  94
FT RUCKER HELI CLOUDY    89  72  56 VRB5      29.99F HX  96
RUCKER HELI 3  FAIR      87  71  58 N7        30.02S HX  93
RUCKER HELI 2  NOT AVBL
FLORALA APT    CLOUDY    84  72  67 CALM      30.02F
ANDALUSIA      CLOUDY    91  72  53 NE3       30.00F HX  98
TROY           CLOUDY    88  72  58 N6        30.02S HX  94
EUFALA         FAIR      86  75  69 CALM      29.99F HX  95
MOBILE         PTSUNNY   88  70  55 CALM      30.02F HX  93
$$

!GAZ120>161-031800
...Southwest and South Central Georgia...

CITY           SKY/WX    TMP DP  RH WIND       PRES   REMARKS
THOMASVILLE    FAIR      90  72  55 NW5       29.99F HX  96
BAINBRIDGE     CLOUDY    90  72  55 CALM      29.99F HX  96
MOODY AFB      MOSUNNY   89  72  56 N8        29.97F HX  96
VALDOSTA       MOSUNNY   90  74  59 VRB5      29.98F HX  99
MOULTRIE       PTSUNNY   90  70  51 CALM      29.98F HX  95
BLAKELY        CLOUDY    90  73  58 N3        30.00S HX  98
ALBANY         CLOUDY    90  72  55 CALM      30.00F HX  97
TIFTON         FAIR      90  67  47 N6        29.98F HX  93
FITZGERALD     FAIR      91  73  55 N5        30.00F HX  99
CORDELE        FAIR      90  74  58 W6        29.99F HX  99
AMERICUS       FAIR      86  72  62 NW6       30.01F HX  92
HOMERVILLE     FAIR      90  77  66 N6        29.98F HX 102
$$

!GMZ750-755-770-775-031800
...Coastal and Buoy Obs...

STATION/POSITION TIME  TEMP    WIND        PRES    VSBY  WAVE
                       AIR SEA DIR/SP/G                  HT/PER
                 (UTC) (F)     (DEG/KT/KT) (MB)    (MI)  (FT/S)
KEATON BEACH     1700   85     260/  8/  9 1015.2F
CEDAR KEY        1700   86     300/  9/ 11 1015.7F
C TOWER          1700   85     290/  7/  8 1015.7F
APALACHICOLA BUO 1650   85 87  330/  4/  6 1016.1F         1/ 7
PANAMA CITY BUOY 1650   84 87  300/  4/  6 1017.0R         1/ 5
MOBILE BUOY      1650   80 84   50/  4/  4 1017.2F         1/ 4
ORANGE BCH AL BU 1650   84 85   CALM  /  2 1016.0F         1
$$



USA.gov is the U.S. government's official web portal to all federal, state and local government web resources and services.